Simultaneous Nadir Overpasses (SNOs) Predictions

Prediction of SNOs between NPP and TERRA Satellite Orbit:

Table of predicted SNOs for the next 14.0 days since TLE Epoch: 4/7/2014
Index Date (NPP) Time (NPP) Lat,Lon (NPP) SZA (NPP ) Date (TERRA) Time (TERRA) Lat,Lon (TERRA) SZA (TERRA ) Distance(km) Time Diff (sec)
1 04/08/2014 15:55:03 -68.78, 120.28 118.67 04/08/2014 15:55:43 -68.76, 120.26 118.70 2.77 40
2 04/08/2014 16:45:47 68.64, -72.23 61.18 04/08/2014 16:45:10 68.65, -72.22 61.19 0.73 37
3 04/11/2014 07:21:26 69.12, 68.25 60.70 04/11/2014 07:22:38 69.00, 68.83 60.57 26.31 72
4 04/11/2014 08:12:02 -68.72,-123.88 119.73 04/11/2014 08:12:11 -68.73,-123.89 119.72 1.07 9
5 04/11/2014 09:02:46 68.58, 43.61 60.13 04/11/2014 09:01:39 68.56, 43.55 60.11 3.60 67
6 04/13/2014 23:38:21 68.80,-175.54 59.40 04/13/2014 23:39:09 68.82,-175.52 59.42 2.42 48
7 04/14/2014 00:29:02 -68.66, -8.04 120.76 04/14/2014 00:28:40 -68.66, -8.09 120.76 2.02 22
8 04/14/2014 01:19:29 67.62, 160.61 58.18 04/14/2014 01:18:23 67.65, 158.36 58.23 95.13 66
9 04/16/2014 15:04:51 -69.63, 131.74 120.71 04/16/2014 15:05:59 -69.49, 133.60 120.86 73.87 68
10 04/16/2014 15:55:21 68.76, -59.72 58.40 04/16/2014 15:55:37 68.77, -59.69 58.41 1.73 16
11 04/16/2014 16:46:02 -68.62, 107.78 121.76 04/16/2014 16:45:08 -68.61, 107.74 121.77 2.02 54
12 04/19/2014 07:21:37 -68.85,-111.39 122.44 04/19/2014 07:22:37 -68.86,-111.34 122.44 2.22 60
13 04/19/2014 08:12:21 68.72, 56.09
